WAT153 KHRL-KAUS

Flight info

Callsign WAT153
Flight time N/A
Altitude 32000
Route CRP HOOLR DXEEE3
Aircraft A320/M-SDE3FGHIRWY/LB1

Departure

Time 2026-05-05 22:44
Airport Valley International Airport (KHRL)

Arrival

Time N/A
Airport Austin Bergstrom International Airport (KAUS)
Time Latitude Longitude Altitude Speed Heading
2026-05-05 22:41 26.23308 -97.66031 45 ft 22 kts
2026-05-05 22:42 26.23468 -97.66027 45 ft 24 kts
2026-05-05 22:42 26.23637 -97.66027 45 ft 25 kts 360°
2026-05-05 22:42 26.23815 -97.66028 46 ft 26 kts 360°
2026-05-05 22:42 26.23976 -97.66028 46 ft 19 kts
2026-05-05 22:43 26.24031 -97.65958 46 ft 12 kts 95°
2026-05-05 22:43 26.24013 -97.65869 46 ft 12 kts 138°
2026-05-05 22:43 26.23980 -97.65859 48 ft 0 kts 177°
2026-05-05 22:43 26.23796 -97.65858 48 ft 69 kts 180°
2026-05-05 22:44 26.23040 -97.65847 43 ft 144 kts 180°
2026-05-05 22:44 26.21937 -97.65833 578 ft 165 kts 178°
2026-05-05 22:44 26.20738 -97.65857 1346 ft 183 kts 179°
2026-05-05 22:44 26.19381 -97.65890 2053 ft 207 kts 179°
2026-05-05 22:45 26.17847 -97.65923 2806 ft 232 kts 178°
2026-05-05 22:45 26.16210 -97.65590 3599 ft 253 kts 157°
2026-05-05 22:45 26.14795 -97.64261 3897 ft 290 kts 126°
2026-05-05 22:45 26.14145 -97.62016 4201 ft 323 kts 92°
2026-05-05 22:46 26.14693 -97.59620 5280 ft 316 kts 58°
2026-05-05 22:46 26.16183 -97.57927 6494 ft 306 kts 30°
2026-05-05 22:46 26.18202 -97.57222 7349 ft 307 kts
2026-05-05 22:46 26.20325 -97.57286 8281 ft 305 kts 352°
2026-05-05 22:47 26.22446 -97.57542 9219 ft 308 kts 351°
2026-05-05 22:47 26.24596 -97.57806 10123 ft 311 kts 351°
2026-05-05 22:47 26.26811 -97.58070 10614 ft 333 kts 353°
2026-05-05 22:47 26.29214 -97.58125 10938 ft 359 kts 359°
2026-05-05 22:48 26.31776 -97.57959 11386 ft 377 kts
2026-05-05 22:48 26.34381 -97.57680 12139 ft 383 kts
2026-05-05 22:48 26.37049 -97.57366 13003 ft 388 kts
2026-05-05 22:48 26.39762 -97.57058 13822 ft 393 kts
2026-05-05 22:49 26.42500 -97.56778 14608 ft 397 kts
2026-05-05 22:49 26.45266 -97.56525 15425 ft 400 kts
2026-05-05 22:49 26.48061 -97.56291 16257 ft 403 kts
2026-05-05 22:49 26.50871 -97.56072 17098 ft 407 kts 360°
2026-05-05 22:50 26.53716 -97.55855 17960 ft 411 kts 360°
2026-05-05 22:50 26.56582 -97.55631 18702 ft 415 kts 360°
2026-05-05 22:50 26.59479 -97.55399 19429 ft 420 kts 360°
2026-05-05 22:50 26.62407 -97.55161 20147 ft 425 kts 359°
2026-05-05 22:51 26.65374 -97.54917 20862 ft 430 kts 359°
2026-05-05 22:51 26.68337 -97.54672 21562 ft 435 kts 359°
2026-05-05 22:51 26.71367 -97.54419 22246 ft 440 kts 359°
2026-05-05 22:51 26.74435 -97.54164 22912 ft 444 kts 359°
2026-05-05 22:52 26.77536 -97.53909 23516 ft 449 kts 359°
2026-05-05 22:52 26.80664 -97.53652 24047 ft 453 kts 359°
2026-05-05 22:52 26.83823 -97.53392 24560 ft 457 kts 359°
2026-05-05 22:52 26.87052 -97.53126 25049 ft 461 kts 358°
2026-05-05 22:53 26.90216 -97.52863 25400 ft 463 kts 358°
2026-05-05 22:53 26.93433 -97.52596 25707 ft 466 kts 358°
2026-05-05 22:53 26.96669 -97.52327 25997 ft 468 kts 358°
2026-05-05 22:53 26.99926 -97.52052 26302 ft 471 kts 358°
2026-05-05 22:54 27.03201 -97.51777 26593 ft 473 kts 358°
2026-05-05 22:54 27.06491 -97.51503 26884 ft 475 kts 358°
2026-05-05 22:54 27.09790 -97.51232 27165 ft 477 kts 358°
2026-05-05 22:54 27.13111 -97.50959 27442 ft 479 kts 358°
2026-05-05 22:55 27.16443 -97.50683 27724 ft 481 kts 358°
2026-05-05 22:55 27.19795 -97.50405 27998 ft 484 kts 358°
2026-05-05 22:55 27.23150 -97.50126 28377 ft 483 kts 358°
2026-05-05 22:55 27.26497 -97.49847 28792 ft 482 kts 358°
2026-05-05 22:56 27.29843 -97.49566 29225 ft 482 kts 357°
2026-05-05 22:56 27.33184 -97.49285 29644 ft 481 kts 357°
2026-05-05 22:56 27.36519 -97.49002 30036 ft 481 kts 357°
2026-05-05 22:56 27.39856 -97.48720 30399 ft 480 kts 357°
2026-05-05 22:57 27.43180 -97.48440 30767 ft 479 kts 357°
2026-05-05 22:57 27.46508 -97.48162 31126 ft 479 kts 357°
2026-05-05 22:57 27.49826 -97.47887 31503 ft 478 kts 356°
2026-05-05 22:57 27.53148 -97.47612 31731 ft 479 kts 356°
2026-05-05 22:58 27.56482 -97.47340 31789 ft 483 kts 356°
2026-05-05 22:58 27.63212 -97.46786 31782 ft 485 kts 357°
2026-05-05 22:59 27.69904 -97.46222 31785 ft 486 kts 357°
2026-05-05 22:59 27.76688 -97.45645 31785 ft 486 kts 357°
2026-05-05 23:00 27.86710 -97.45241 31798 ft 473 kts 345°
2026-05-05 23:00 27.92889 -97.47183 31793 ft 452 kts 327°
2026-05-05 23:01 27.98111 -97.50884 31781 ft 439 kts 316°
2026-05-05 23:01 28.03052 -97.54970 31781 ft 440 kts 316°
2026-05-05 23:02 28.07998 -97.59045 31799 ft 440 kts 316°
2026-05-05 23:02 28.12950 -97.63132 31798 ft 440 kts 316°
2026-05-05 23:03 28.17893 -97.67229 31820 ft 439 kts 315°
2026-05-05 23:03 28.22812 -97.71318 31807 ft 438 kts 315°
2026-05-05 23:04 28.27722 -97.75412 31806 ft 437 kts 315°
2026-05-05 23:04 28.32625 -97.79491 31803 ft 437 kts 315°
2026-05-05 23:05 28.37525 -97.83569 31799 ft 436 kts 315°
2026-05-05 23:05 28.42414 -97.87658 31796 ft 436 kts 315°
2026-05-05 23:06 28.47273 -97.91716 31806 ft 435 kts 315°
2026-05-05 23:06 28.52148 -97.95793 31789 ft 435 kts 315°
2026-05-05 23:07 28.57015 -97.99868 31757 ft 435 kts 314°
2026-05-05 23:07 28.61891 -98.03954 31733 ft 435 kts 314°
2026-05-05 23:08 28.66767 -98.08044 31717 ft 436 kts 315°
2026-05-05 23:08 28.71651 -98.12142 31745 ft 436 kts 314°
2026-05-05 23:09 28.76532 -98.16248 31742 ft 435 kts 314°
2026-05-05 23:09 28.81402 -98.20353 31741 ft 435 kts 314°
2026-05-05 23:10 28.86263 -98.24458 31738 ft 435 kts 314°
2026-05-05 23:10 28.91137 -98.28548 31739 ft 437 kts 316°
2026-05-05 23:11 28.93815 -98.30281 31734 ft 449 kts 326°
2026-05-05 23:11 28.96785 -98.31535 31733 ft 459 kts 333°
2026-05-05 23:11 29.02887 -98.33707 31758 ft 459 kts 332°
2026-05-05 23:12 29.09059 -98.35602 31745 ft 473 kts 342°
2026-05-05 23:12 29.12389 -98.35869 31737 ft 485 kts 351°
2026-05-05 23:12 29.15767 -98.35829 31731 ft 486 kts 351°
2026-05-05 23:13 29.22537 -98.35718 31751 ft 486 kts 351°
2026-05-05 23:13 29.29291 -98.35616 31790 ft 485 kts 350°
2026-05-05 23:14 29.34894 -98.35546 31790 ft 484 kts 350°
2026-05-05 23:14 29.41633 -98.35469 31787 ft 484 kts 350°
2026-05-05 23:15 29.48368 -98.35391 31783 ft 484 kts 350°
2026-05-05 23:15 29.55101 -98.35279 31768 ft 488 kts 354°
2026-05-05 23:16 29.58502 -98.34649 31789 ft 505 kts
2026-05-05 23:16 29.61850 -98.33287 31792 ft 513 kts 12°
2026-05-05 23:16 29.68500 -98.30296 31790 ft 513 kts 12°
2026-05-05 23:17 29.75151 -98.27302 31785 ft 513 kts 12°
2026-05-05 23:17 29.81846 -98.24843 31329 ft 489 kts
2026-05-05 23:18 29.85172 -98.24166 30371 ft 481 kts 359°
2026-05-05 23:18 29.88404 -98.23562 30175 ft 457 kts 358°
2026-05-05 23:18 29.91459 -98.23000 30047 ft 434 kts 357°
2026-05-05 23:18 29.94370 -98.22467 29849 ft 416 kts 356°
2026-05-05 23:19 29.97219 -98.21959 28323 ft 429 kts 357°
2026-05-05 23:19 30.00245 -98.21438 26456 ft 449 kts 358°
2026-05-05 23:19 30.03401 -98.20883 24541 ft 467 kts
2026-05-05 23:19 30.06652 -98.20207 22695 ft 481 kts
2026-05-05 23:20 30.09926 -98.19301 20899 ft 485 kts
2026-05-05 23:20 30.13150 -98.18185 19452 ft 485 kts 19°
2026-05-05 23:20 30.15981 -98.16101 18245 ft 484 kts 40°
2026-05-05 23:20 30.18097 -98.13112 16858 ft 478 kts 56°
2026-05-05 23:21 30.19676 -98.09764 15486 ft 471 kts 71°
2026-05-05 23:21 30.20236 -98.06107 14372 ft 457 kts 93°